Regional Weather Roundup
Issued by NWS

Home | Current Version | Previous Version | Text Only | Print | Product List | Glossary Off
Versions: 1 2 3 4 5 6 7 8 9 10 11 12 13 14 15 16 17 18 19 20 21 22 23 24 25 26 27 28 29 30 31 32 33 34 35 36 37 38 39 40 41 42 43 44 45 46 47 48 49 50

000
ASUS43 KFSD 221902
RWRSD

WEATHER ROUNDUP FOR SOUTH DAKOTA
NATIONAL WEATHER SERVICE SIOUX FALLS SD
200 PM CDT SAT JUL 22 2017

NOTE: "FAIR" INDICATES FEW OR NO CLOUDS BELOW 12,000 FEET WITH NO
SIGNIFICANT WEATHER AND/OR OBSTRUCTIONS TO VISIBILITY.


SDZ001>005-009-010-012>017-222000-
NORTHWEST AND NORTH CENTRAL SOUTH DAKOTA

CITY           SKY/WX    TMP DP  RH WIND       PRES   REMARKS
BUFFALO          N/A     85  38  18 NW23G32   30.02F
FAITH            N/A     90  39  16 NW8G23    30.03S
MOBRIDGE       SUNNY     88  55  32 NW12      29.94S
$$

SDZ012>016-024>037-041>051-057-063-072>074-222000-
SOUTHWEST AND SOUTH CENTRAL SOUTH DAKOTA

CITY           SKY/WX    TMP DP  RH WIND       PRES   REMARKS
RAPID CTY ARPT SUNNY     90  40  17 NE12G18   30.07F
PIERRE         SUNNY     93  38  14 N12       29.95S
CUSTER         SUNNY     80  37  21 E9G20     30.22S
ELLSWORTH AFB  MOSUNNY   88  40  18 N10G18    30.08S
PHILIP         SUNNY     94  39  14 VRB5      29.99F
PINE RIDGE     LGT RAIN  82  62  50 E6        30.08S
SPEARFISH      LGT RAIN  84  36  17 VRB6G14   30.14F
WINNER         FAIR      92  62  36 CALM      30.00S
$$

SDZ004>011-016>023-039-040-222000-
NORTHEAST SOUTH DAKOTA

CITY           SKY/WX    TMP DP  RH WIND       PRES   REMARKS
ABERDEEN       SUNNY     88  65  46 N9G16     29.91F
WATERTOWN      SUNNY     84  67  56 NW12      29.91F
BROOKINGS      CLOUDY    82  70  66 W9G17     29.93S
SISSETON         N/A     88  61  40 NW14      29.87S
$$

SDZ017-020-022-023-036>040-048>070-222000-
SOUTHEAST SOUTH DAKOTA

CITY           SKY/WX    TMP DP  RH WIND       PRES   REMARKS
SIOUX FALLS    CLOUDY    86  73  65 W7        29.92R
HURON          SUNNY     86  70  58 VRB7      29.92S
CHAMBERLAIN    MOSUNNY   92  61  35 N5        29.96F
MITCHELL       MOSUNNY   85  70  60 NW6       29.94R
YANKTON        CLOUDY    79  71  76 N6        29.94S
$$

ABBREVIATIONS USED IN REMARKS
   TC - TEMPERATURE IN CELSIUS
  WCI - WIND CHILL INDEX
   HX - HEAT INDEX
  VSB - VISIBILITY





USA.gov is the U.S. government's official web portal to all federal, state and local government web resources and services.